Location: Cedar Brake
(32.2526°N, 97.8459°W)
Time: 20:40:54
(UTC+00:00)

Cosmos 1025 Rocket - Pass Details

Date: 22 April 2026
Orbit: 587 x 609 km, 82.5° (Epoch: 21 May)

Event Time Altitude Azimuth Distance (km) Brightness Sun altitude
Rises 03:23:27 0° 348° (NNW) 2,829 7.1 -27.1°
Reaches altitude 10° 03:25:40 10° 344° (NNW) 1,927 6.2 -27.4°
Enters shadow 03:29:05 48° 307° (NW) 781 3.8 -28.0°
